User: anonymous
Location: Caltech
(34.1382°N, 118.1253°W)
Time: 03:09:22
(UTC-07:00)
Language:

Cosmos 1943 Rocket - Orbit

View from above orbital plane
View from above orbital plane
View from above satellite
View from above satellite

Ground track
Ground track

The orbit data is extracted from the following two-line orbital elements,

1 19120U 88039B   14232.74504740  .00000212  00000-0  12441-3 0  1277
2 19120 071.0183 344.1203 0023425 325.3089 138.6082 14.19038282360069
Epoch (UTC): 20 August 2014 17:52:52
Eccentricity: 0.0023425
inclination: 71.0183°
perigee height: 812 km
apogee height: 845 km
right ascension of ascending node: 344.1203°
argument of perigee: 325.3089°
revolutions per day: 14.19038282
mean anomaly at epoch: 138.6082°
orbit number at epoch: 36006

The dashed part of the orbit path shows where the satellite is in the earth's shadow,  

DLR